Flag for U.S.A. Weather past 2 weeks in Lincoln, Nebraska, U.S.A.

Now
74 °F

Overcast.


Feels Like: 77 °F
Forecast: 59 / 74 °F
Wind: 16 mph from Southwest

Location: Lincoln Municipal Airport

Current Time: May 25, 2015 at 1:20:36 PM

Latest Report: May 25, 2015 at 12:54 PM


Visibility: 10 mi

Pressure: 29.79 "Hg

Humidity: 53%

Dew point: 56 °F

Location of LincolnLocation

Historic Weather in Lincoln — Graph

°F

Lincoln temperature yesterday

Maximum temperature yesterday: 70 °F (at 2:54 PM)
Minimum temperature yesterday: 60 °F (at 5:01 AM)
Average temperature yesterday: 64 °F

Past Weeks' High & Low Weather Summary

 TemperatureHumidityPressure
High81 °F (May 17, 4:54 PM)97% (May 14, 1:54 AM)30.41 "Hg (May 14, 1:54 AM)
Low38 °F (May 19, 5:54 AM)30% (May 21, 6:54 PM)29.57 "Hg (May 17, 1:54 AM)
Average58 °F73%30.05 "Hg
* Reported May 10 11:54 AM — May 25 11:54 AM, Lincoln, Weather by CustomWeather, © 2015

Note: Actual official high and low records may vary slightly from our data, if they occured in-between our weather recording intervals... More about our weather records

Advertising

Lincoln weather history for previous 24 hours

 ConditionsComfort  
Time TempWeatherWind HumidityBarometerVisibility
11:54 AM
Mon, May 25
73 °FSunny.7 mph59%29.78 "Hg10 mi
10:54 AM70 °FScattered clouds.14 mph64%29.79 "Hg10 mi
9:54 AM67 °FSunny.7 mph73%29.80 "Hg10 mi
8:54 AM63 °FScattered clouds.3 mph84%29.81 "Hg10 mi
7:54 AM62 °FPartly sunny.5 mph83%29.76 "Hg10 mi
6:54 AM61 °FClear.10 mph87%29.78 "Hg10 mi
5:54 AM60 °FClear.9 mph96%29.76 "Hg9 mi
4:54 AM59 °FFog.8 mph96%29.75 "Hg4 mi
3:54 AM60 °FOvercast.No wind96%29.75 "Hg9 mi
2:54 AM61 °FPartly cloudy.No wind97%29.76 "Hg9 mi
1:54 AM60 °FPartly cloudy.No wind96%29.77 "Hg9 mi
12:54 AM61 °FClear.No wind93%29.78 "Hg10 mi
11:54 PM
Sun, May 24
62 °FPassing clouds.No wind93%29.79 "Hg10 mi
10:54 PM63 °FPassing clouds.5 mph90%29.79 "Hg10 mi
9:54 PM64 °FClear.No wind90%29.78 "Hg10 mi
8:54 PM64 °FSunny.3 mph90%29.76 "Hg10 mi
7:54 PM67 °FMostly cloudy.5 mph81%29.77 "Hg10 mi
6:54 PM68 °FSunny.7 mph78%29.78 "Hg10 mi
5:54 PM69 °FMostly cloudy.10 mph79%29.79 "Hg10 mi
4:54 PM69 °FMore clouds than sun.6 mph76%29.79 "Hg10 mi
3:54 PM69 °FMostly cloudy.5 mph76%29.79 "Hg10 mi
2:54 PM70 °FPartly sunny.5 mph71%29.80 "Hg10 mi
1:54 PM68 °FOvercast.8 mph76%29.83 "Hg10 mi
Weather by CustomWeather, © 2015

See weather overviewHow to use our weather pages